Weather History for Blackpool, United Kingdom

Change the Weather History Date:

Friday, September 13, 2013

  Actual Average Record
Temperature  
Mean Temperature 56 °F -  
Max Temperature 57 °F 58 °F 75 °F (2002)
Min Temperature 55 °F 49 °F 42 °F (1996)
Degree Days  
Heating Degree Days 9    
Growing Degree Days 6 (Base 50)    
Moisture  
Dew Point 46 °F    
Average Humidity 66    
Maximum Humidity 87    
Minimum Humidity 56    
Precipitation  
Precipitation 0.00 in - - ()
Sea Level Pressure  
Sea Level Pressure 30.06 in    
Wind  
Wind Speed 11 mph ()    
Max Wind Speed 17 mph    
Max Gust Speed -    
Visibility 6.2 miles    
Events Rain    
Averages and records for this station are not official NWS values.
T = Trace of Precipitation, MM = Missing Value Source: Averaged Metar Reports

Daily Weather History Graph

Daily Weather History Graph

Search for Another Location

Airport:

Trip Planner

Search our weather history database for the weather conditions in past years. The results will help you decide how hot, cold, wet, or windy it might be!

Date:

Astronomy

Sep. 13, 2013 Rise Set
Actual Time 6:42 AM BST 7:32 PM BST
Civil Twilight 6:06 AM BST 8:08 PM BST
Nautical Twilight 5:23 AM BST 8:51 PM BST
Astronomical Twilight 4:36 AM BST 9:37 PM BST
Moon 3:48 PM BST (9/13) No Moon Set
Length of Visible Light 14h 02m
Length of Day
12h 50m
First Quarter, 59% of the Moon is Illuminated
Sep 13
First Quarter
Sep 19
Full
Sep 27
Last Quarter
Oct 5
New
Oct 12
First Quarter

Hourly Weather History & Observations

Time (BST) Temp. Dew Point Humidity Pressure Visibility Wind Dir Wind Speed Gust Speed Precip Events Conditions
12:50 AM 58 °F 55 °F 87%  in - NNW 15.0 mph - -  
3:50 AM 57 °F 47 °F 62%  in - NW 17.3 mph - -  
6:20 AM 57.2 °F 46.4 °F 67% 30.04 in 6.2 mi NW 12.7 mph - N/A   Mostly Cloudy
6:50 AM 57 °F 47 °F 61%  in - NW 13.8 mph - -  
6:50 AM 57.2 °F 46.4 °F 67% 30.06 in 6.2 mi NW 13.8 mph - N/A   Scattered Clouds
7:20 AM 57.2 °F 48.2 °F 72% 30.06 in 6.2 mi NW 11.5 mph - N/A   Mostly Cloudy
7:50 AM 57.2 °F 46.4 °F 67% 30.06 in 6.2 mi NW 11.5 mph - N/A   Scattered Clouds
8:20 AM 57.2 °F 46.4 °F 67% 30.06 in 6.2 mi NW 10.4 mph - N/A Rain Light Rain
8:50 AM 55.4 °F 46.4 °F 72% 30.06 in 6.2 mi NW 10.4 mph - N/A   Partly Cloudy
9:20 AM 57.2 °F 46.4 °F 67% 30.06 in 6.2 mi WNW 9.2 mph - N/A   Partly Cloudy
9:50 AM 56 °F 46 °F 59%  in - NW 10.4 mph - -  
9:50 AM 57.2 °F 46.4 °F 67% 30.06 in 6.2 mi NW 9.2 mph - N/A   Partly Cloudy
10:20 AM 57.2 °F 46.4 °F 67% 30.09 in 6.2 mi WNW 9.2 mph - N/A   Partly Cloudy
10:50 AM 57.2 °F 46.4 °F 67% 30.09 in 6.2 mi WNW 10.4 mph - N/A   Partly Cloudy
11:20 AM 57.2 °F 46.4 °F 67% 30.09 in 6.2 mi West 10.4 mph - N/A   Scattered Clouds
11:50 AM 57.2 °F 46.4 °F 67% 30.09 in 6.2 mi West 11.5 mph - N/A   Scattered Clouds
12:50 PM 56 °F 46 °F 61%  in - WNW 11.5 mph - -  
12:50 PM 57.2 °F 46.4 °F 67% 30.09 in 6.2 mi WNW 12.7 mph - N/A   Scattered Clouds
1:20 PM 57.2 °F 46.4 °F 67% 30.09 in 6.2 mi WNW 10.4 mph - N/A   Scattered Clouds
1:50 PM 57.2 °F 46.4 °F 67% 30.09 in 6.2 mi WNW 11.5 mph - N/A   Scattered Clouds
2:20 PM 57.2 °F 44.6 °F 63% 30.09 in 6.2 mi West 10.4 mph - N/A   Scattered Clouds
2:50 PM 57.2 °F 46.4 °F 67% 30.06 in 6.2 mi West 10.4 mph - N/A   Scattered Clouds
3:20 PM 57.2 °F 44.6 °F 63% 30.06 in 6.2 mi WNW 9.2 mph - N/A   Scattered Clouds
3:50 PM 56 °F 45 °F 57%  in - WNW 11.5 mph - -  
3:50 PM 57.2 °F 44.6 °F 63% 30.06 in 6.2 mi WNW 10.4 mph - N/A   Scattered Clouds
4:20 PM 57.2 °F 44.6 °F 63% 30.06 in 6.2 mi West 11.5 mph - N/A   Scattered Clouds
4:50 PM 57.2 °F 44.6 °F 63% 30.06 in 6.2 mi West 11.5 mph - N/A   Partly Cloudy
5:20 PM 57.2 °F 42.8 °F 59% 30.04 in 6.2 mi West 12.7 mph - N/A Rain Light Rain Showers
5:50 PM 57.2 °F 44.6 °F 63% 30.04 in 6.2 mi WNW 11.5 mph - N/A Rain Light Rain Showers
6:20 PM 57.2 °F 42.8 °F 59% 30.04 in 6.2 mi WNW 11.5 mph - N/A   Partly Cloudy
6:50 PM 55 °F 45 °F 59%  in - WNW 12.7 mph - -  
6:50 PM 55.4 °F 44.6 °F 67% 30.04 in 6.2 mi WNW 12.7 mph - N/A Rain Light Rain Showers
7:20 PM 55.4 °F 46.4 °F 72% 30.04 in 6.2 mi WNW 12.7 mph - N/A Rain Light Rain Showers
7:50 PM 55.4 °F 44.6 °F 67% 30.04 in 6.2 mi WNW 13.8 mph - N/A Rain Light Rain Showers
8:20 PM 55.4 °F 46.4 °F 72% 30.04 in 6.2 mi WNW 11.5 mph - N/A   Partly Cloudy
8:50 PM 55.4 °F 46.4 °F 72% 30.04 in 6.2 mi WNW 12.7 mph - N/A   Scattered Clouds
9:50 PM 55 °F 44 °F 56%  in - NW 11.5 mph - -